User: anonymous   Login
Location: Unspecified
(0.0000°N, 0.0000°E)
Time: 11:14:31
(UTC+00:00)
Language:

BUGSAT 1 - Orbit

View from above orbital plane
View from above orbital plane
View from above satellite
View from above satellite

Ground track
Ground track

The orbit data is extracted from the following two-line orbital elements,

1 40014U 14033E   19348.10941249  .00000816  00000-0  78913-4 0  9992
2 40014  98.0387 299.8572 0031224 186.8173 173.2609 14.95371101299161
Epoch (UTC): 14 December 2019 02:37:33
Eccentricity: 0.0031224
inclination: 98.0387°
perigee height: 559 km
apogee height: 603 km
right ascension of ascending node: 299.8572°
argument of perigee: 186.8173°
revolutions per day: 14.95371101
mean anomaly at epoch: 173.2609°
orbit number at epoch: 29916

The dashed part of the orbit path shows where the satellite is in the earth's shadow,  

DLR